Simultaneous Nadir Overpasses (SNOs) Predictions

Prediction of SNOs between AQUA and METOP-A Satellite Orbit:

Table of predicted SNOs for the next 14.0 days since TLE Epoch: 4/23/2016
Index Date (AQUA) Time (AQUA) Lat,Lon (AQUA) SZA (AQUA ) Date (METOP-A) Time (METOP-A) Lat,Lon (METOP-A) SZA (METOP-A ) Distance(km) Time Diff (sec)
1 04/24/2016 12:38:45 -73.86, 164.58 119.27 04/24/2016 12:38:14 -73.85, 164.46 119.27 3.73 31
2 04/24/2016 13:28:14 73.96, -28.00 60.83 04/24/2016 13:28:52 73.93, -28.01 60.80 2.33 38
3 04/27/2016 08:12:58 -73.91,-129.08 120.13 04/27/2016 08:12:36 -73.92,-128.98 120.11 3.46 22
4 04/27/2016 09:02:26 73.95, 38.45 59.92 04/27/2016 09:03:15 73.95, 38.44 59.91 0.51 49
5 04/30/2016 02:57:35 73.49, 130.62 58.58 04/30/2016 02:56:26 73.44, 128.98 58.58 52.47 69
6 04/30/2016 03:47:09 -73.91, -62.65 121.00 04/30/2016 03:46:59 -73.88, -62.66 121.02 3.28 10
7 04/30/2016 04:36:37 73.96, 104.88 59.05 04/30/2016 04:37:37 73.97, 104.88 59.05 0.37 60
8 05/02/2016 22:31:53 73.83,-163.65 58.09 05/02/2016 22:30:41 73.85,-163.67 58.12 2.17 72
9 05/02/2016 23:21:20 -73.88, 3.87 121.87 05/02/2016 23:21:22 -73.89, 3.77 121.86 3.48 2
10 05/03/2016 00:10:49 73.99, 171.28 58.23 05/03/2016 00:12:00 73.98, 171.31 58.22 1.30 71
11 05/05/2016 18:06:05 73.86, -97.28 57.31 05/05/2016 18:05:04 73.86, -97.24 57.31 1.46 61
12 05/05/2016 18:55:32 -73.91, 70.25 122.65 05/05/2016 18:55:45 -73.90, 70.19 122.66 2.22 13




NCC Satellite Simultaneous Nadir Overpasses (SNOs) Prediction Service
